Home   Weather   Rio Grande   Past weeks

Flag for Brazil Past Weather in Rio Grande, Rio Grande do Sul, Brazil — Yesterday and Last 2 Weeks

Now
63 °F

Drizzle. Low clouds.


Feels Like: 63 °F
Forecast: N/A
Wind: 7 mph from West

Location: Pelotas Airport

Current Time: Aug 30, 2016 at 7:47:44 PM

Latest Report: Aug 30, 2016 at 7:00 PM


Visibility: 2 mi

Pressure: 29.83 "Hg

Humidity: 94%

Dew Point: 61 °F

Location of Rio GrandeLocation

Past Weather in Rio Grande — Graph

°F

Rio Grande Temperature Yesterday

Maximum temperature yesterday: 63 °F (at 9:00 AM)
Minimum temperature yesterday: 61 °F (at 7:00 AM)
Average temperature yesterday: 62 °F

High & Low Weather Summary for the Past Weeks

 TemperatureHumidityPressure
High93 °F (Aug 27, 1:00 PM)100% (Aug 16, 7:00 AM)30.33 "Hg (Aug 16, 7:00 AM)
Low36 °F (Aug 22, 7:00 AM)21% (Aug 18, 12:00 PM)29.65 "Hg (Aug 16, 9:45 PM)
Average63 °F71%30.01 "Hg
* Reported Aug 15 6:00 PM — Aug 30 6:00 PM, Rio Grande, Weather by CustomWeather, © 2016

Note: Actual official high and low records may vary slightly from our data, if they occured in-between our weather recording intervals... More about our weather records

Advertising

Rio Grande Weather History for the Previous 24 Hours

Scroll right to see more
 ConditionsComfort  
Time TempWeatherWind HumidityBarometerVisibility
6:00 PM
Tue, Aug 30
63 °FDrizzle. Low clouds.8 mph94%29.83 "Hg1 mi
5:00 PM63 °FDrizzle. Fog.9 mph94%29.83 "Hg2 mi
4:00 PM63 °FMostly cloudy.9 mph94%29.83 "HgN/A
3:00 PM64 °FLow clouds.8 mph88%29.83 "HgN/A
2:00 PM64 °FLow clouds.10 mph88%29.83 "HgN/A
1:00 PM64 °FLow clouds.9 mph88%29.86 "HgN/A
12:00 PM64 °FFog.8 mph94%29.86 "Hg3 mi
11:00 AM63 °FFog.6 mph100%29.89 "Hg1 mi
10:00 AM63 °FFog.8 mph100%29.89 "Hg1 mi
9:00 AM64 °FFog.2 mph94%29.89 "Hg1 mi
8:00 AM63 °FLight rain. Fog.2 mph100%29.86 "Hg1 mi
7:00 AM63 °FLight rain. Fog.3 mph100%29.86 "Hg1 mi
9:45 PM
Mon, Aug 29
61 °FLight rain. Fog.13 mph100%30.01 "Hg1 mi
9:00 PM61 °FLight rain. Fog.10 mph100%30.01 "Hg1 mi
8:00 PM61 °FLight rain. Fog.12 mph100%30.01 "Hg1 mi
7:00 PM63 °FLight rain. Fog.12 mph94%30.01 "Hg1 mi
Weather by CustomWeather, © 2016

See weather overviewHow to use our weather pages